Location: Peebles
(55.6412°N, 3.1714°W)
Time: 06:43:21
(UTC+00:00)

DOVE 4 - Pass Details

Date: 02 October 2023
Orbit: 583 x 785 km, 97.8° (Epoch: 02 December)

Event Time Altitude Azimuth Distance (km) Brightness Sun altitude
Rises 00:15:21 0° 12° (NNE) 3,115 ? -36.9°
Reaches altitude 10° 00:17:35 10° 9° (N) 2,222 ? -37.0°
Enters shadow 00:19:24 23° 3° (N) 1,538 ? -37.0°
